K42C Weather Reports


Display with metric or nautical units.
time (UTC)temp
F
wind
direction
speed
MPH
gust
MPH
rain 1hr
in
rain 24hr
in
rain mn
in
humidity
%
barometer
mb
20260508014342 42 338 0.0 0.0 0.00 0.00 0.00 83 974.8
20260508013701 43 338 0.0 0.0 0.00 0.00 0.00 81 974.7
20260508013024 43 338 0.0 0.0 0.00 0.00 0.00 81 974.6
20260508012343 43 338 0.0 0.0 0.00 0.00 0.00 81 974.5
20260508011705 44 338 0.0 0.0 0.00 0.00 0.00 80 974.4
20260508011024 44 338 0.0 0.0 0.00 0.00 0.00 78 974.3
20260508010347 45 338 0.0 0.0 0.00 0.00 0.00 76 974.3
20260508005706 45 338 0.0 0.0 0.00 0.00 0.00 74 974.1
20260508005029 46 338 0.0 0.0 0.00 0.00 0.00 73 974.1
20260508004348 46 338 0.0 0.0 0.00 0.00 0.00 73 974.0
20260508003710 46 338 0.0 0.0 0.00 0.00 0.00 74 974.0
20260508002352 46 338 0.0 0.0 0.00 0.00 0.00 72 974.0
20260508001711 47 338 0.0 0.0 0.00 0.00 0.00 71 974.0
20260508001034 47 338 0.0 0.0 0.00 0.00 0.00 70 974.0
20260508000353 47 338 0.0 0.0 0.00 0.00 0.00 70 974.1
20260507235715 47 338 0.0 0.0 0.00 0.00 0.00 69 974.0
20260507235034 47 338 0.0 0.0 0.00 0.00 0.00 69 974.1
20260507234359 47 338 0.0 0.0 0.00 0.00 0.00 69 974.2
20260507233716 47 338 0.0 0.0 0.00 0.00 0.00 69 974.3
20260507233039 47 338 0.0 0.0 0.00 0.00 0.00 69 974.2
20260507232358 46 338 0.0 0.0 0.00 0.00 0.00 69 974.3
20260507231720 46 314 0.0 0.0 0.00 0.00 0.00 70 974.4
20260507231039 46 308 0.0 0.0 0.00 0.00 0.00 69 974.4
20260507230402 46 308 0.0 0.0 0.00 0.00 0.00 70 974.3
20260507225721 46 307 0.0 0.0 0.00 0.00 0.00 70 974.5
20260507225044 46 319 0.0 0.0 0.00 0.00 0.00 70 974.5
20260507224403 46 325 3.0 4.0 0.00 0.00 0.00 69 974.5
20260507223725 46 350 2.0 5.0 0.00 0.00 0.00 69 974.3
20260507223045 47 338 4.0 6.0 0.00 0.00 0.00 68 974.3
20260507222407 47 28 2.0 0.0 0.00 0.00 0.00 67 974.3
20260507221726 48 1 6.0 9.0 0.00 0.00 0.00 65 974.3
20260507221133 49 335 3.0 8.0 0.00 0.00 0.00 60 974.2
20260507221049 49 335 3.0 8.0 0.00 0.00 0.00 60 974.2
20260507215852 49 17 2.0 0.0 0.00 0.00 0.00 58 974.4
20260507215731 49 17 2.0 0.0 0.00 0.00 0.00 58 974.4
20260507215307 49 336 5.0 0.0 0.00 0.00 0.00 58 974.3
20260507215050 49 336 5.0 0.0 0.00 0.00 0.00 58 974.3
20260507214532 49 260 2.0 3.0 0.00 0.00 0.00 57 974.3
20260507214412 49 260 2.0 3.0 0.00 0.00 0.00 57 974.3
20260507213809 49 153 5.0 0.0 0.00 0.00 0.00 56 974.2
20260507213731 49 153 5.0 0.0 0.00 0.00 0.00 56 974.2
20260507213054 49 186 2.0 3.0 0.00 0.00 0.00 56 974.3
20260507212534 49 284 2.0 0.0 0.00 0.00 0.00 56 974.3
20260507212413 49 284 2.0 0.0 0.00 0.00 0.00 56 974.3
20260507211842 49 273 2.0 4.0 0.00 0.00 0.00 56 974.2
20260507211736 49 273 2.0 4.0 0.00 0.00 0.00 56 974.2
20260507211055 49 312 2.0 4.0 0.00 0.00 0.00 56 974.1
20260507210502 50 304 2.0 0.0 0.00 0.00 0.00 54 974.2
20260507210417 50 304 2.0 0.0 0.00 0.00 0.00 54 974.2
20260507205926 50 300 5.0 3.0 0.00 0.00 0.00 53 974.3
20260507205737 50 300 5.0 3.0 0.00 0.00 0.00 53 974.3
20260507205059 50 359 1.0 0.0 0.00 0.00 0.00 50 974.2
20260507204622 50 231 2.0 5.0 0.00 0.00 0.00 50 974.2
20260507204418 50 231 2.0 5.0 0.00 0.00 0.00 50 974.2
20260507203741 51 259 2.0 0.0 0.00 0.00 0.00 49 974.2
20260507202621 51 281 4.0 6.0 0.00 0.00 0.00 49 974.4
20260507202423 51 281 4.0 6.0 0.00 0.00 0.00 49 974.4
20260507201917 50 257 2.0 0.0 0.00 0.00 0.00 50 974.5
20260507201742 50 257 2.0 0.0 0.00 0.00 0.00 50 974.5
20260507200424 50 277 2.0 0.0 0.00 0.00 0.00 50 974.6
20260507195858 50 236 4.0 5.0 0.00 0.00 0.00 50 974.6
20260507195746 50 236 4.0 5.0 0.00 0.00 0.00 50 974.6
20260507195105 49 208 1.0 0.0 0.00 0.00 0.00 50 974.6
20260507194428 49 243 1.0 0.0 0.00 0.00 0.00 50 974.7
20260507193747 50 211 4.0 2.0 0.00 0.00 0.00 49 974.5
20260507193110 50 273 6.0 6.0 0.00 0.00 0.00 48 974.5
20260507192429 51 280 4.0 0.0 0.00 0.00 0.00 48 974.5
20260507191751 52 256 4.0 0.0 0.00 0.00 0.00 47 974.5
20260507191111 50 300 9.0 4.0 0.00 0.00 0.00 50 974.4
20260507190433 50 267 7.0 4.0 0.00 0.00 0.00 50 974.5
20260507185752 50 295 3.0 5.0 0.00 0.00 0.00 49 974.4
20260507185115 51 300 6.0 4.0 0.00 0.00 0.00 48 974.5
20260507184434 51 333 8.0 10.0 0.00 0.00 0.00 48 974.4
20260507183757 51 294 6.0 10.0 0.00 0.00 0.00 48 974.4
20260507183223 51 263 0.0 6.0 0.00 0.00 0.00 49 974.4
20260507183116 51 263 0.0 6.0 0.00 0.00 0.00 49 974.4
20260507182439 52 312 9.0 0.0 0.00 0.00 0.00 47 974.4
20260507181758 51 276 7.0 0.0 0.00 0.00 0.00 50 974.4
20260507181120 51 219 9.0 0.0 0.00 0.00 0.00 49 974.6
20260507180440 51 198 8.0 0.0 0.00 0.00 0.00 50 974.6
20260507175802 51 277 1.0 9.0 0.00 0.00 0.00 50 974.7
20260507175351 51 236 2.0 3.0 0.00 0.00 0.00 53 974.6
20260507175121 51 236 2.0 3.0 0.00 0.00 0.00 53 974.6
20260507174444 50 271 7.0 10.0 0.00 0.00 0.00 52 974.7
20260507173803 50 242 5.0 8.0 0.00 0.00 0.00 53 974.9
20260507173126 49 246 6.0 5.0 0.00 0.00 0.00 55 975.0
20260507172445 49 352 3.0 0.0 0.00 0.00 0.00 56 975.1
20260507171808 49 329 9.0 7.0 0.00 0.00 0.00 56 975.1
20260507171127 49 294 6.0 0.0 0.00 0.00 0.00 57 975.3
20260507170449 48 273 5.0 8.0 0.00 0.00 0.00 59 975.4
20260507165808 48 238 5.0 11.0 0.00 0.00 0.00 59 975.7
20260507165131 48 356 7.0 11.0 0.00 0.00 0.00 60 975.7
20260507164450 48 280 4.0 9.0 0.00 0.00 0.00 59 976.0
20260507163813 48 284 2.0 6.0 0.00 0.00 0.00 59 976.0
20260507163132 48 242 4.0 5.0 0.00 0.00 0.00 61 976.1
20260507162455 48 238 5.0 8.0 0.00 0.00 0.00 61 976.3
20260507161814 47 260 4.0 3.0 0.00 0.00 0.00 63 976.4
20260507161137 47 276 4.0 0.0 0.00 0.00 0.00 67 976.6
20260507155818 46 224 3.0 4.0 0.00 0.00 0.00 69 976.6
20260507155137 46 250 5.0 3.0 0.00 0.00 0.00 68 976.5
20260507153819 46 193 1.0 0.0 0.00 0.00 0.00 67 976.6
20260507153142 46 345 1.0 8.0 0.00 0.00 0.00 71 976.6
20260507152501 45 333 3.0 3.0 0.00 0.00 0.00 70 976.6
20260507151824 45 236 1.0 4.0 0.00 0.00 0.00 68 976.8
20260507151143 45 298 2.0 0.0 0.00 0.00 0.00 66 976.8
20260507150506 45 266 0.0 0.0 0.00 0.00 0.00 67 976.8
20260507145825 45 308 0.0 0.0 0.00 0.00 0.00 67 976.7
20260507145147 45 290 0.0 0.0 0.00 0.00 0.00 67 976.7
20260507144506 45 290 0.0 0.0 0.00 0.00 0.00 64 976.6
20260507143829 45 328 1.0 4.0 0.00 0.00 0.00 66 976.7
20260507143148 45 270 6.0 5.0 0.00 0.00 0.00 65 976.7
20260507142511 45 301 0.0 0.0 0.00 0.00 0.00 63 976.5
20260507141830 45 270 5.0 0.0 0.00 0.00 0.00 63 976.5
20260507141333 45 291 0.0 0.0 0.00 0.00 0.00 64 976.4
20260507141153 45 291 0.0 0.0 0.00 0.00 0.00 64 976.4
20260507140512 45 271 4.0 7.0 0.00 0.00 0.00 63 976.4
20260507135834 45 253 2.0 6.0 0.00 0.00 0.00 63 976.4
20260507135341 46 246 4.0 8.0 0.00 0.00 0.00 68 976.4
20260507135154 46 246 4.0 8.0 0.00 0.00 0.00 68 976.4
20260507134516 46 314 1.0 0.0 0.00 0.00 0.00 71 976.4
20260507133910 45 194 2.0 0.0 0.00 0.00 0.00 74 976.4
20260507133835 45 194 2.0 0.0 0.00 0.00 0.00 74 976.4
20260507133310 45 255 0.0 0.0 0.00 0.00 0.00 74 976.4
20260507133158 45 255 0.0 0.0 0.00 0.00 0.00 74 976.4
20260507132517 45 210 1.0 0.0 0.00 0.00 0.00 76 976.3
20260507131840 44 35 0.0 0.0 0.00 0.00 0.00 78 976.3
20260507131342 44 35 0.0 0.0 0.00 0.00 0.00 78 976.3
20260507131159 44 35 0.0 0.0 0.00 0.00 0.00 78 976.3
20260507130620 44 35 0.0 0.0 0.00 0.00 0.00 78 976.3
20260507130522 44 35 0.0 0.0 0.00 0.00 0.00 78 976.3
20260507125923 44 249 0.0 0.0 0.00 0.00 0.00 80 976.4
20260507125841 44 249 0.0 0.0 0.00 0.00 0.00 80 976.4
20260507124523 43 274 0.0 0.0 0.00 0.00 0.00 79 976.5
20260507123919 42 274 0.0 0.0 0.00 0.00 0.00 82 976.5
20260507123845 42 274 0.0 0.0 0.00 0.00 0.00 82 976.5
20260507123204 42 274 0.0 0.0 0.00 0.00 0.00 86 976.6
20260507122742 41 274 0.0 0.0 0.00 0.00 0.00 87 976.6
20260507122527 41 274 0.0 0.0 0.00 0.00 0.00 87 976.6
20260507121936 41 274 0.0 0.0 0.00 0.00 0.00 90 976.8
20260507121846 41 274 0.0 0.0 0.00 0.00 0.00 90 976.8
20260507121209 40 274 0.0 0.0 0.00 0.00 0.00 90 976.9
20260507120528 39 274 0.0 0.0 0.00 0.00 0.00 92 976.9
20260507115851 39 274 0.0 0.0 0.00 0.00 0.00 94 976.9
20260507114629 37 274 0.0 0.0 0.00 0.00 0.00 96 977.1
20260507114532 37 274 0.0 0.0 0.00 0.00 0.00 96 977.1
20260507113851 36 274 0.0 0.0 0.00 0.00 0.00 96 977.1
20260507113214 35 274 0.0 0.0 0.00 0.00 0.00 96 977.2
20260507112533 35 274 0.0 0.0 0.00 0.00 0.00 97 977.1
20260507111856 34 274 0.0 0.0 0.00 0.00 0.00 98 977.2
20260507111215 33 274 0.0 0.0 0.00 0.00 0.00 98 977.1
20260507110537 33 274 0.0 0.0 0.00 0.00 0.00 98 976.9
20260507105856 32 274 0.0 0.0 0.00 0.00 0.00 98 976.9
20260507105219 32 274 0.0 0.0 0.00 0.00 0.00 97 976.8
20260507104539 32 274 0.0 0.0 0.00 0.00 0.00 97 976.7
20260507103900 33 274 0.0 0.0 0.00 0.00 0.00 96 976.6
20260507103219 33 274 0.0 0.0 0.00 0.00 0.00 95 976.7
20260507102542 34 274 0.0 0.0 0.00 0.00 0.00 95 976.6
20260507101901 34 274 0.0 0.0 0.00 0.00 0.00 95 976.7
20260507101224 34 274 0.0 0.0 0.00 0.00 0.00 94 976.6
20260507100543 34 274 0.0 0.0 0.00 0.00 0.00 93 976.5
20260507095905 35 274 0.0 0.0 0.00 0.00 0.00 92 976.4
20260507095224 36 274 0.0 0.0 0.00 0.00 0.00 92 976.4
20260507093906 37 274 0.0 0.0 0.00 0.00 0.00 90 976.3
20260507093228 38 274 0.0 0.0 0.00 0.00 0.00 88 976.4
20260507092547 38 274 0.0 0.0 0.00 0.00 0.00 87 976.3
20260507091910 39 274 0.0 0.0 0.00 0.00 0.00 86 976.2
20260507091229 39 274 0.0 0.0 0.00 0.00 0.00 85 976.4
20260507090552 39 274 0.0 0.0 0.00 0.00 0.00 84 976.3
20260507085911 39 274 0.0 0.0 0.00 0.00 0.00 83 976.3
20260507085233 40 274 0.0 0.0 0.00 0.00 0.00 82 976.3
20260507084552 40 274 0.0 0.0 0.00 0.00 0.00 81 976.3
20260507083915 41 274 0.0 0.0 0.00 0.00 0.00 81 976.4
20260507083234 41 274 0.0 0.0 0.00 0.00 0.00 80 976.4
20260507082557 41 274 0.0 0.0 0.00 0.00 0.00 80 976.4
20260507081916 41 274 0.0 0.0 0.00 0.00 0.00 79 976.4
20260507081238 41 274 0.0 0.0 0.00 0.00 0.00 79 976.4
20260507080557 41 274 0.0 0.0 0.00 0.00 0.00 78 976.3
20260507075920 42 274 0.0 0.0 0.00 0.00 0.00 77 976.4
20260507075239 42 274 0.0 0.0 0.00 0.00 0.00 76 976.4
20260507074602 42 274 0.0 0.0 0.00 0.00 0.00 76 976.5
20260507073921 42 274 0.0 0.0 0.00 0.00 0.00 75 976.5
20260507073243 42 274 0.0 0.0 0.00 0.00 0.00 75 976.4
20260507072602 42 274 0.0 0.0 0.00 0.00 0.00 75 976.5
20260507071925 43 274 0.0 0.0 0.00 0.00 0.00 75 976.5
20260507071244 43 274 0.0 0.0 0.00 0.00 0.00 74 976.5
20260507070607 43 274 0.0 0.0 0.00 0.00 0.00 75 976.7
20260507065248 43 274 0.0 0.0 0.00 0.00 0.00 74 976.7
20260507064607 43 274 0.0 0.0 0.00 0.00 0.00 73 976.7
20260507063930 43 274 0.0 0.0 0.00 0.00 0.00 73 976.7
20260507063249 43 274 0.0 0.0 0.00 0.00 0.00 73 976.7
20260507062612 43 274 0.0 0.0 0.00 0.00 0.00 73 976.7
20260507061931 43 256 0.0 0.0 0.00 0.00 0.00 72 976.8
20260507061253 44 274 0.0 0.0 0.00 0.00 0.00 72 976.8
20260507060612 44 271 0.0 0.0 0.00 0.00 0.00 72 976.9
20260507055254 44 333 1.0 0.0 0.00 0.00 0.00 72 976.9
20260507054617 44 318 0.0 0.0 0.00 0.00 0.00 72 976.9
20260507053936 44 318 0.0 0.0 0.00 0.00 0.00 72 976.9
20260507053258 44 318 0.0 0.0 0.00 0.00 0.00 72 976.9
20260507052617 44 304 1.0 0.0 0.00 0.00 0.00 72 977.0
20260507051940 44 309 0.0 0.0 0.00 0.00 0.00 71 977.0
20260507051259 44 248 0.0 0.0 0.00 0.00 0.00 70 977.0
20260507050621 44 221 1.0 0.0 0.00 0.00 0.00 70 976.9
20260507045941 44 287 0.0 0.0 0.00 0.00 0.00 70 976.9
20260507045306 44 287 0.0 0.0 0.00 0.00 0.00 70 977.0
20260507044622 44 287 0.0 0.0 0.00 0.00 0.00 69 977.0
20260507043945 44 287 0.0 0.0 0.00 0.00 0.00 68 976.8
20260507043304 44 287 0.0 0.0 0.00 0.00 0.00 68 976.9
20260507042626 44 287 0.0 0.0 0.00 0.00 0.00 67 976.8
20260507041945 44 287 0.0 0.0 0.00 0.00 0.00 67 976.8
20260507041308 44 287 0.0 0.0 0.00 0.00 0.00 67 976.9
20260507040627 45 287 0.0 0.0 0.00 0.00 0.00 67 976.9
20260507035950 45 287 0.0 0.0 0.00 0.00 0.00 67 976.8
20260507035309 45 287 0.0 0.0 0.00 0.00 0.00 66 976.8
20260507034631 45 287 0.0 0.0 0.00 0.00 0.00 66 976.7
20260507033950 45 287 0.0 0.0 0.00 0.00 0.00 66 976.8
20260507033313 45 287 0.0 0.0 0.00 0.00 0.00 65 976.8
20260507032632 45 287 0.0 0.0 0.00 0.00 0.00 65 976.9
20260507031954 45 287 0.0 0.0 0.00 0.00 0.00 65 976.9
20260507031313 45 287 0.0 0.0 0.00 0.00 0.00 65 976.9
20260507030636 46 287 0.0 0.0 0.00 0.00 0.00 65 976.9
20260507025955 46 287 0.0 0.0 0.00 0.00 0.00 64 976.9
20260507025318 46 287 0.0 0.0 0.00 0.00 0.00 64 977.0
20260507024637 46 287 0.0 0.0 0.00 0.00 0.00 64 977.0
20260507023959 46 287 0.0 0.0 0.00 0.00 0.00 63 976.9
20260507023318 46 253 0.0 0.0 0.00 0.00 0.00 64 976.9
20260507022641 46 188 0.0 0.0 0.00 0.00 0.00 64 976.9
20260507022000 46 304 1.0 0.0 0.00 0.00 0.00 63 976.9
20260507021322 46 308 0.0 0.0 0.00 0.00 0.00 63 976.9
20260507020641 46 308 0.0 0.0 0.00 0.00 0.00 63 976.7
20260507020004 47 308 0.0 0.0 0.00 0.00 0.00 63 976.7
20260507015323 47 308 2.0 0.0 0.00 0.00 0.00 63 976.6
20260507014646 47 240 1.0 0.0 0.00 0.00 0.00 63 976.6